User: anonymous   Login
Location: Unspecified
(0.0000°N, 0.0000°E)
Time: 19:52:39
(UTC+00:00)
Language:

Nadezhda 4 - Orbit

View from above orbital plane
View from above orbital plane
View from above satellite
View from above satellite

Ground track
Ground track

The orbit data is extracted from the following two-line orbital elements,

1 23179U 94041A   17268.92957078 +.00000038 +00000-0 +23224-4 0  9999
2 23179 082.9459 232.5407 0035468 005.9544 013.6714 13.76537577165350
Epoch (UTC): 25 September 2017 22:18:34
Eccentricity: 0.0035468
inclination: 82.9459°
perigee height: 950 km
apogee height: 1002 km
right ascension of ascending node: 232.5407°
argument of perigee: 5.9544°
revolutions per day: 13.76537577
mean anomaly at epoch: 13.6714°
orbit number at epoch: 16535

The dashed part of the orbit path shows where the satellite is in the earth's shadow,  

DLR